[[{"header":{"parameterUnit":"m.s-1","parameterCategory":2,"la1":30.2992,"la2":30.254,"lo1":-89.0895,"lo2":-89.0443,"dy":0.0025,"dx":0.0025,"nx":19,"ny":19,"refTime":"2026-03-19T03:00:00:Z","depth":"0","parameterNumber":2,"parameterNumberName":"U-component_of_CURRENTS"},"data":[0,0,0,0.4767,0.4769,0.4831,0.4832,0.4892,0.4893,0,0,0,0,0,0,0,0,0,0,0,0.4744,0.4744,0.4767,0.4769,0.4831,0.4832,0.4892,0.4893,0,0,0,0,0,0,0,0,0,0,0,0.4743,0.4744,0.4745,0.4769,0.4831,0.4832,0.4892,0.4848,0,0,0,0,0,0,0,0,0,0,0.4788,0.4795,0.4744,0.4745,0.477,0.4831,0.4832,0.4845,0.485,0.4862,0,0.488,0,0.4894,0.4898,0.4898,0,0,0,0.476,0.4792,0.4788,0.4745,0.4771,0.4831,0.4801,0.4848,0.4854,0.4868,0.4881,0.4883,0.4895,0.4898,0.4898,0.5018,0.5019,0,0,0.4756,0.4773,0.4785,0.4792,0.4798,0.4799,0.4803,0.4852,0.4874,0.4881,0.4885,0.4896,0.4898,0.4899,0.5017,0.5018,0,0,0,0.4753,0.4771,0.4767,0.4789,0.4806,0.4801,0.4805,0.4872,0.4865,0.4886,0.4896,0.4899,0.49,0.5016,0.5018,0.4957,0,0,0,0.475,0.4769,0.4765,0.4778,0.4805,0.4849,0.4825,0.4861,0.4868,0.4896,0.4899,0.49,0.5015,0.5017,0.4957,0.489,0,0,0,0.4739,0.4769,0.4774,0.4779,0.4808,0.4848,0.4845,0.4863,0.4875,0.4898,0.4901,0.5015,0.5017,0.4956,0.4892,0.4879,0,0,0,0.4754,0.477,0.4775,0.4808,0.4807,0.4841,0.4845,0.489,0.4914,0.4899,0.5015,0.5017,0.4956,0.4893,0.488,0.481,0.48,0,0,0.4772,0.4774,0.479,0.4795,0.4797,0.4831,0.4857,0.4895,0.4947,0.4994,0.4997,0.4957,0.4892,0.4879,0.4921,0.4906,0,0,0,0.4793,0.4774,0.4792,0.4795,0.4836,0.4837,0.4887,0.4919,0.4978,0.4973,0.5013,0.4975,0.4968,0.4931,0.4921,0.4815,0.5026,0.5026,0.5026,0.4749,0.4757,0.4753,0.4754,0.4789,0.4846,0.4869,0.4923,0.4981,0.502,0.4969,0.4971,0.4936,0.4926,0.4821,0.5041,0.5041,0.5041,0.5041,0.4681,0.464,0.4673,0.4659,0.469,0.4715,0.481,0.4861,0.4919,0.4973,0.4971,0.4923,0.491,0.4802,0.5038,0.5038,0.5039,0.5039,0.5039,0.4569,0.4551,0.4556,0.4538,0.4536,0.4611,0.4617,0.4718,0.4838,0.4848,0.4842,0.4842,0.4706,0.4867,0.4867,0.4866,0.4866,0.4866,0.4866,0.4443,0.445,0.4405,0.4405,0.4391,0.4401,0.45,0.4555,0.4666,0.4754,0.4755,0.4701,0.4918,0.4878,0.4861,0.4861,0.4862,0.4863,0.4863,0.4272,0.4304,0.4236,0.4211,0.4183,0.4121,0.4256,0.4348,0.4447,0.4488,0.4526,0.472,0.4725,0.4735,0.4693,0.4628,0.4628,0.4628,0.4628,0.416,0.4172,0.4079,0.4014,0.3963,0.3975,0.3922,0.4078,0.4264,0.4323,0.4371,0.4384,0.4399,0.4386,0.4403,0.4356,0.4208,0.4207,0.4207,0.4055,0.4055,0.3947,0.3907,0.3843,0.3801,0.3711,0.377,0.4045,0.4182,0.4234,0.4252,0.4268,0.4299,0.4284,0.4317,0.4244,0,0]},{"header":{"parameterUnit":"m.s-1","parameterCategory":2,"la1":30.2992,"la2":30.254,"lo1":-89.0895,"lo2":-89.0443,"dy":0.0025,"dx":0.0025,"nx":19,"ny":19,"refTime":"2026-03-19T03:00:00:Z","depth":"0","parameterNumber":3,"parameterNumberName":"V-component_of_CURRENTS"},"data":[0,0,0,0.1411,0.1414,0.1531,0.1531,0.1529,0.1528,0,0,0,0,0,0,0,0,0,0,0,0.1363,0.1364,0.1411,0.1414,0.1531,0.1531,0.1529,0.1528,0,0,0,0,0,0,0,0,0,0,0,0.1362,0.1364,0.1365,0.1415,0.1531,0.1531,0.1529,0.1473,0,0,0,0,0,0,0,0,0,0,0.1377,0.1385,0.1364,0.1365,0.1416,0.1531,0.1531,0.1472,0.1477,0.1439,0,0.1474,0,0.1511,0.1527,0.1526,0,0,0,0.1394,0.1382,0.1395,0.1366,0.1417,0.1531,0.1473,0.1476,0.1481,0.1444,0.1474,0.1476,0.1511,0.1526,0.1526,0.1662,0.1664,0,0,0.1388,0.1394,0.1393,0.1399,0.1467,0.1469,0.1477,0.148,0.15,0.1474,0.1476,0.151,0.1526,0.1526,0.1661,0.1663,0,0,0,0.1383,0.139,0.1407,0.1398,0.1437,0.1473,0.1482,0.15,0.1502,0.1477,0.151,0.1526,0.1526,0.1659,0.1662,0.1711,0,0,0,0.1378,0.1388,0.1404,0.141,0.1439,0.1499,0.1501,0.1501,0.1504,0.151,0.1526,0.1525,0.1657,0.166,0.1706,0.1734,0,0,0,0.1354,0.1387,0.1402,0.141,0.1469,0.15,0.1503,0.1503,0.1524,0.1526,0.1525,0.1656,0.166,0.1701,0.1727,0.18,0,0,0,0.1351,0.1404,0.1403,0.1477,0.1468,0.1552,0.1503,0.1565,0.1578,0.1526,0.1657,0.1661,0.17,0.1722,0.1795,0.1849,0.1876,0,0,0.141,0.1412,0.1453,0.1454,0.1528,0.1533,0.1634,0.1627,0.1626,0.1636,0.1641,0.1708,0.1726,0.1799,0.2081,0.2101,0,0,0,0.1465,0.1481,0.1511,0.1556,0.1609,0.1668,0.1681,0.1707,0.176,0.1659,0.1776,0.1788,0.1831,0.1856,0.1873,0.1632,0.168,0.1679,0.1679,0.1503,0.1523,0.1587,0.1619,0.168,0.1762,0.1826,0.187,0.183,0.1896,0.1879,0.2039,0.207,0.2083,0.1835,0.1934,0.1934,0.1934,0.1934,0.1551,0.1578,0.162,0.168,0.1744,0.1821,0.1939,0.1959,0.2063,0.201,0.2048,0.1971,0.2104,0.1833,0.1939,0.1938,0.1937,0.1937,0.1937,0.1547,0.1564,0.1601,0.1681,0.1775,0.1867,0.2015,0.2082,0.2122,0.2178,0.221,0.2209,0.1925,0.2194,0.2195,0.2195,0.2196,0.2196,0.2196,0.1521,0.1562,0.1607,0.1692,0.1759,0.189,0.2067,0.2168,0.2281,0.2301,0.2301,0.198,0.2118,0.2055,0.2204,0.2202,0.2201,0.2201,0.22,0.1501,0.1525,0.1597,0.1659,0.1838,0.2013,0.2151,0.2375,0.2454,0.2519,0.2159,0.2374,0.2365,0.2351,0.2297,0.2499,0.2499,0.2499,0.2499,0.1477,0.1497,0.1603,0.1725,0.19,0.2085,0.2381,0.2578,0.2456,0.231,0.2143,0.2044,0.2043,0.2005,0.2,0.1935,0.204,0.2039,0.2038,0.1457,0.1502,0.1577,0.1726,0.1939,0.219,0.2505,0.2783,0.2435,0.1988,0.1795,0.1815,0.1631,0.1648,0.1558,0.1569,0.1452,0,0]}],[{"header":{"parameterUnit":"m.s-1","parameterCategory":2,"la1":30.2992,"la2":30.254,"lo1":-89.0895,"lo2":-89.0443,"dy":0.0025,"dx":0.0025,"nx":19,"ny":19,"refTime":"2026-03-19T03:00:00:Z","depth":"2","parameterNumber":2,"parameterNumberName":"U-component_of_CURRENTS"},"data":[0,0,0,0.2248,0.2254,0.2353,0.2352,0.2486,0.2489,0,0,0,0,0,0,0,0,0,0,0,0.2127,0.2129,0.2248,0.2255,0.2353,0.2352,0.2486,0.2489,0,0,0,0,0,0,0,0,0,0,0,0.2127,0.2128,0.213,0.2256,0.2353,0.2352,0.2485,0.2381,0,0,0,0,0,0,0,0,0,0,0.2272,0.2148,0.2128,0.213,0.2257,0.2353,0.2351,0.2374,0.2387,0.2481,0,0.2516,0,0.2602,0.2509,0.251,0,0,0,0.2138,0.2136,0.2258,0.213,0.226,0.2354,0.2275,0.2381,0.2396,0.2499,0.2519,0.2527,0.2604,0.2511,0.2512,0.2749,0.2749,0,0,0.2133,0.2052,0.2248,0.2268,0.2318,0.2273,0.228,0.2388,0.2364,0.252,0.2532,0.2606,0.2513,0.2515,0.2748,0.2749,0,0,0,0.2196,0.2047,0.216,0.2259,0.2332,0.2279,0.2287,0.2353,0.242,0.2534,0.2608,0.2514,0.2518,0.2748,0.2748,0.2798,0,0,0,0.2187,0.2097,0.2158,0.2097,0.233,0.2338,0.2249,0.2406,0.2426,0.2607,0.2514,0.2521,0.2747,0.2748,0.2796,0.2777,0,0,0,0.2117,0.2088,0.2128,0.2095,0.2212,0.2339,0.2399,0.2409,0.2479,0.251,0.2522,0.2747,0.2748,0.2794,0.2775,0.2848,0,0,0,0.1989,0.2043,0.2124,0.2156,0.2213,0.2357,0.2398,0.2461,0.2482,0.2516,0.2748,0.2748,0.2794,0.2774,0.2846,0.2647,0.2641,0,0,0.2001,0.2039,0.2056,0.2139,0.228,0.2333,0.2436,0.2485,0.2528,0.2693,0.2697,0.2797,0.2775,0.2847,0.2697,0.2689,0,0,0,0.2022,0.2071,0.2103,0.2198,0.2314,0.241,0.2511,0.2568,0.2664,0.2578,0.28,0.2784,0.2829,0.2704,0.2699,0.2752,0.2752,0.2752,0.2752,0.2053,0.2099,0.2146,0.225,0.2328,0.2494,0.2546,0.2655,0.2724,0.2772,0.283,0.2916,0.2783,0.2777,0.2855,0.2856,0.2856,0.2856,0.2856,0.2108,0.2101,0.2182,0.2247,0.2374,0.249,0.2667,0.2725,0.2883,0.2879,0.2923,0.2766,0.2773,0.286,0.2859,0.2859,0.2858,0.2858,0.2858,0.2086,0.2072,0.2129,0.2208,0.2333,0.2485,0.2625,0.2772,0.2897,0.2951,0.286,0.2856,0.2945,0.3014,0.3014,0.3014,0.3014,0.3015,0.3015,0.1985,0.2041,0.2057,0.2157,0.2212,0.2357,0.2612,0.2745,0.2863,0.2868,0.2867,0.2969,0.2963,0.2954,0.3019,0.3018,0.3017,0.3017,0.3017,0.1863,0.1901,0.1921,0.1964,0.2099,0.2172,0.244,0.2644,0.2789,0.2806,0.2829,0.2832,0.2796,0.2796,0.2782,0.28,0.28,0.28,0.2799,0.1758,0.1784,0.1796,0.1841,0.1938,0.2085,0.2148,0.2263,0.247,0.2456,0.2471,0.2371,0.2387,0.2324,0.2335,0.231,0.2205,0.2204,0.2203,0.1663,0.1694,0.1671,0.1754,0.1857,0.1974,0.191,0.1821,0.1974,0.2182,0.2396,0.2754,0.2643,0.2654,0.2585,0.2593,0.2564,0,0]},{"header":{"parameterUnit":"m.s-1","parameterCategory":2,"la1":30.2992,"la2":30.254,"lo1":-89.0895,"lo2":-89.0443,"dy":0.0025,"dx":0.0025,"nx":19,"ny":19,"refTime":"2026-03-19T03:00:00:Z","depth":"2","parameterNumber":3,"parameterNumberName":"V-component_of_CURRENTS"},"data":[0,0,0,-0.01,-0.0101,-0.0156,-0.0157,-0.0159,-0.0159,0,0,0,0,0,0,0,0,0,0,0,-0.0084,-0.0084,-0.01,-0.0101,-0.0156,-0.0157,-0.0159,-0.0159,0,0,0,0,0,0,0,0,0,0,0,-0.0084,-0.0084,-0.0084,-0.0101,-0.0156,-0.0157,-0.016,-0.0137,0,0,0,0,0,0,0,0,0,0,-0.0092,-0.0098,-0.0084,-0.0084,-0.0102,-0.0156,-0.0157,-0.0136,-0.0138,-0.0112,0,-0.0121,0,-0.0133,-0.0157,-0.0157,0,0,0,-0.0109,-0.0097,-0.0095,-0.0084,-0.0102,-0.0156,-0.0134,-0.0138,-0.014,-0.0114,-0.0121,-0.0121,-0.0133,-0.0157,-0.0157,-0.0222,-0.0223,0,0,-0.0106,-0.0108,-0.0094,-0.0096,-0.0114,-0.0132,-0.0135,-0.014,-0.0148,-0.0121,-0.0122,-0.0133,-0.0157,-0.0156,-0.0221,-0.0222,0,0,0,-0.0092,-0.0106,-0.0107,-0.0096,-0.0108,-0.0133,-0.0137,-0.0149,-0.0144,-0.0122,-0.0133,-0.0156,-0.0156,-0.022,-0.0221,-0.0056,0,0,0,-0.0091,-0.0097,-0.0105,-0.0109,-0.0108,-0.0141,-0.0146,-0.0144,-0.0145,-0.0133,-0.0156,-0.0156,-0.0219,-0.0221,-0.0058,0.0042,0,0,0,-0.0082,-0.0097,-0.0099,-0.0109,-0.0127,-0.0142,-0.014,-0.0146,-0.0151,-0.0157,-0.0156,-0.0218,-0.022,-0.006,0.0036,0.0123,0,0,0,-0.0087,-0.0076,-0.0099,-0.0084,-0.0127,-0.0138,-0.014,-0.016,-0.0168,-0.0156,-0.0219,-0.0221,-0.006,0.0032,0.0119,0.0124,0.0144,0,0,-0.0066,-0.0074,-0.0059,-0.008,-0.0061,-0.0131,-0.0119,-0.0133,-0.0198,-0.0211,-0.0213,-0.0057,0.0036,0.0122,-0.0007,0.0019,0,0,0,-0.0046,-0.0035,-0.0037,-0.0031,-0.0055,-0.0045,-0.0104,-0.0132,-0.0159,-0.0212,-0.0151,-0.0099,-0.0047,-0.0058,-0.004,-0.0232,-0.0232,-0.0231,-0.0231,-0.0035,-0.0014,0.002,0.004,0.0036,-0.0002,0.0002,-0.0059,-0.0124,-0.0146,-0.0033,0.0051,0.0034,0.005,-0.0131,-0.0131,-0.013,-0.013,-0.0129,0.0026,0.0075,0.0092,0.0147,0.0159,0.0172,0.0137,0.0098,0.011,0.0004,0.0046,0.0028,0.0081,-0.0118,-0.012,-0.0122,-0.0123,-0.0124,-0.0124,0.0067,0.0104,0.014,0.0237,0.0314,0.0316,0.0432,0.0359,0.027,0.0319,0.028,0.0276,0.023,0.034,0.0341,0.0342,0.0342,0.0343,0.0343,0.0113,0.0152,0.0244,0.034,0.0427,0.055,0.0606,0.0639,0.0571,0.0458,0.0456,0.021,0.0194,0.0252,0.0356,0.0354,0.0352,0.0351,0.035,0.0203,0.0219,0.0356,0.0449,0.0662,0.088,0.0895,0.0954,0.0915,0.089,0.0519,0.0511,0.0468,0.0448,0.0507,0.0672,0.0672,0.0672,0.0672,0.0263,0.0278,0.048,0.0649,0.0866,0.1039,0.1265,0.1157,0.0931,0.0704,0.0702,0.0582,0.0568,0.0522,0.05,0.0556,0.0734,0.0734,0.0734,0.0331,0.0382,0.0549,0.0719,0.0971,0.1252,0.144,0.126,0.0861,0.0735,0.0701,0.0678,0.0489,0.0472,0.0382,0.0355,0.0436,0,0]}],[{"header":{"parameterUnit":"m.s-1","parameterCategory":2,"la1":30.2992,"la2":30.254,"lo1":-89.0895,"lo2":-89.0443,"dy":0.0025,"dx":0.0025,"nx":19,"ny":19,"refTime":"2026-03-19T03:00:00:Z","depth":"4","parameterNumber":2,"parameterNumberName":"U-component_of_CURRENTS"},"data":[0,0,0,0.0973,0.0974,0.1092,0.1093,0.1217,0.1218,0,0,0,0,0,0,0,0,0,0,0,0.0969,0.0969,0.0973,0.0974,0.1092,0.1093,0.1217,0.1218,0,0,0,0,0,0,0,0,0,0,0,0.0969,0.0969,0.097,0.0974,0.1092,0.1093,0.1217,0.1148,0,0,0,0,0,0,0,0,0,0,0.1042,0.1014,0.0969,0.097,0.0974,0.1091,0.1093,0.1146,0.1152,0.1138,0,0.1148,0,0.1142,0.122,0.122,0,0,0,0.103,0.1009,0.103,0.097,0.0974,0.1091,0.1055,0.115,0.1157,0.1146,0.1149,0.1153,0.1144,0.122,0.122,0.1232,0.1232,0,0,0.1024,0.1003,0.1025,0.1035,0.0992,0.105,0.1057,0.1156,0.1161,0.115,0.1156,0.1146,0.122,0.1221,0.1233,0.1232,0,0,0,0.0967,0.0998,0.1021,0.103,0.103,0.1052,0.1061,0.1159,0.1164,0.1157,0.1148,0.1221,0.1221,0.1233,0.1232,0.1278,0,0,0,0.0966,0.096,0.1017,0.1008,0.1027,0.1093,0.1062,0.1159,0.1168,0.1147,0.1221,0.1221,0.1233,0.1233,0.1277,0.1313,0,0,0,0.0966,0.0959,0.0968,0.1006,0.1026,0.1092,0.1106,0.1163,0.1159,0.122,0.1222,0.1233,0.1233,0.1276,0.1311,0.1365,0,0,0,0.0949,0.0945,0.0968,0.0968,0.1024,0.1063,0.1106,0.1151,0.12,0.1221,0.1233,0.1232,0.1276,0.131,0.1363,0.1206,0,0,0,0.0929,0.0943,0.0943,0.0964,0.0986,0.1051,0.1095,0.1175,0.1189,0.1209,0.121,0.1277,0.1311,0.1364,0.1186,0,0,0,0,0.0927,0.0932,0.0941,0.0964,0.0997,0.1075,0.113,0.1169,0.1238,0.1204,0.1257,0.1277,0.131,0.121,0.1231,0.1231,0.1231,0.1231,0.1231,0.0874,0.0909,0.092,0.0971,0.1008,0.109,0.1157,0.1217,0.1222,0.1257,0.1298,0.135,0.1242,0.1271,0.1271,0.1271,0.1271,0.1272,0.1272,0.0845,0.0851,0.0919,0.095,0.1034,0.1093,0.1203,0.1247,0.1341,0.1328,0.1358,0.1243,0.1276,0.1275,0.1274,0.1274,0.1274,0.1273,0.1273,0.08,0.081,0.0853,0.0921,0.102,0.1121,0.1221,0.1319,0.1387,0.1427,0.1344,0.1393,0.141,0.1459,0.1459,0.146,0.146,0.146,0.1461,0.0733,0.0775,0.0807,0.0898,0.0957,0.1079,0.1266,0.1331,0.1432,0.139,0.1465,0.1414,0.1408,0.142,0.1467,0.1466,0.1465,0.1464,0.1464,0.0664,0.0697,0.0734,0.0783,0.0914,0.0994,0.1188,0.131,0.1384,0.1391,0.1362,0.1365,0.1345,0.1342,0.1351,0.1379,0.1377,0.1376,0,0.0608,0.0629,0.0668,0.0717,0.0793,0.0936,0.1022,0.1144,0.1246,0.1201,0.1357,0.1318,0.1321,0.129,0.1284,0.1289,0,0,0,0.0558,0.0588,0.0586,0.0652,0.0726,0.0878,0.1042,0.1058,0.1228,0.1264,0.133,0.1342,0.1396,0.1484,0.1463,0.1455,0.1475,0,0]},{"header":{"parameterUnit":"m.s-1","parameterCategory":2,"la1":30.2992,"la2":30.254,"lo1":-89.0895,"lo2":-89.0443,"dy":0.0025,"dx":0.0025,"nx":19,"ny":19,"refTime":"2026-03-19T03:00:00:Z","depth":"4","parameterNumber":3,"parameterNumberName":"V-component_of_CURRENTS"},"data":[0,0,0,-0.0002,-0.0002,-0.005,-0.005,-0.0176,-0.0177,0,0,0,0,0,0,0,0,0,0,0,0.0006,0.0006,-0.0002,-0.0002,-0.005,-0.005,-0.0175,-0.0177,0,0,0,0,0,0,0,0,0,0,0,0.0006,0.0006,0.0006,-0.0002,-0.005,-0.005,-0.0175,-0.0128,0,0,0,0,0,0,0,0,0,0,-0.0076,-0.0044,0.0006,0.0006,-0.0003,-0.0049,-0.005,-0.0125,-0.0131,-0.0167,0,-0.0167,0,-0.0165,-0.0185,-0.0185,0,0,0,-0.0021,-0.0039,-0.0055,0.0006,-0.0003,-0.0049,-0.0034,-0.0128,-0.0134,-0.0175,-0.0168,-0.0172,-0.0167,-0.0186,-0.0186,-0.0198,-0.0197,0,0,-0.0018,-0.0004,-0.005,-0.0059,-0.0007,-0.0032,-0.0035,-0.0131,-0.0134,-0.0169,-0.0175,-0.0169,-0.0186,-0.0187,-0.0198,-0.0198,0,0,0,0.0002,-0.0002,-0.0015,-0.0054,-0.0052,-0.0033,-0.0036,-0.013,-0.0135,-0.0176,-0.017,-0.0187,-0.0189,-0.0199,-0.0198,-0.0129,0,0,0,0.0002,0.0011,-0.0013,-0.0006,-0.0049,-0.008,-0.0033,-0.0129,-0.0139,-0.017,-0.0187,-0.019,-0.02,-0.0199,-0.0133,-0.01,0,0,0,0.0007,0.0011,0.0008,-0.0005,-0.0016,-0.0078,-0.0089,-0.0131,-0.0135,-0.0185,-0.019,-0.0201,-0.0199,-0.0136,-0.0105,-0.0112,0,0,0,0.0019,0.0049,0.0008,0.0046,-0.0016,-0.0,-0.0088,-0.0095,-0.0126,-0.0188,-0.02,-0.0198,-0.0137,-0.0109,-0.0115,-0.0083,0,0,0,0.0071,0.0055,0.008,0.0044,0.008,0.0004,0.0029,-0.0056,-0.0113,-0.0179,-0.0179,-0.0132,-0.0106,-0.0113,0.0028,0,0,0,0,0.0107,0.0119,0.0125,0.0132,0.0122,0.0094,0.0027,-0.0014,-0.0072,-0.012,-0.0113,-0.0098,-0.0105,-0.0093,-0.0189,-0.0189,-0.019,-0.019,-0.019,0.018,0.0178,0.0218,0.0206,0.0207,0.0157,0.0125,0.0056,-0.0005,-0.0011,-0.0028,0.0036,0.0056,-0.0014,-0.0014,-0.0014,-0.0013,-0.0013,-0.0013,0.0254,0.0273,0.0271,0.0306,0.0276,0.0279,0.0201,0.015,0.0091,0.0048,0.0037,-0.0001,-0.0006,-0.0007,-0.0008,-0.0009,-0.001,-0.001,-0.001,0.0287,0.0297,0.0319,0.036,0.0382,0.035,0.0344,0.0269,0.0165,0.0157,0.0132,0.0073,0.0047,0.0142,0.0142,0.0142,0.0142,0.0142,0.0142,0.0303,0.0327,0.0374,0.0418,0.0456,0.0477,0.0426,0.0375,0.0273,0.0221,0.0173,0.0087,0.0082,0.0056,0.0145,0.0144,0.0144,0.0144,0.0143,0.033,0.0346,0.0417,0.0466,0.0554,0.0573,0.0543,0.0437,0.0381,0.0304,0.0232,0.0227,0.0193,0.0185,0.016,0.0283,0.0284,0.0285,0,0.0346,0.036,0.0456,0.054,0.0613,0.0628,0.0592,0.0522,0.038,0.0382,0.0347,0.027,0.0265,0.023,0.0223,0.0198,0,0,0,0.0366,0.0395,0.0466,0.0553,0.0641,0.0612,0.0581,0.0538,0.0424,0.0364,0.0303,0.0298,0.0234,0.0152,0.0087,0.008,0.0033,0,0]}]]